1486494000.44,17942,11.63,72808.3,-7.89,-34.35,-34.89,0,*58
1486494001.7,17943,11.63,72806.8,-7.91,-34.25,-34.95,0,*5C
1486494002.96,17944,11.63,72806.5,-7.91,-34.35,-34.89,0,*57
1486494004.19,17945,11.63,72804.0,-7.91,-34.25,-34.89,0,*57
1486494005.45,17946,11.63,72804.3,-7.91,-34.25,-34.95,0,*59
1486494006.66,17947,11.63,72804.8,-7.89,-34.25,-34.89,0,*5C
1486494007.89,17948,11.56,72800.8,-7.89,-34.25,-34.95,0,*5E
1486494009.13,17949,11.63,72808.3,-7.89,-34.19,-34.71,0,*5A
1486494010.36,17950,11.63,72802.8,-7.91,-34.25,-34.77,0,*52
1486494011.62,17951,11.63,72808.0,-7.91,-34.19,-34.77,0,*5C
1486494012.86,17952,11.56,72802.5,-7.91,-34.25,-34.77,0,*50
1486494014.06,17953,11.63,72804.5,-7.89,-34.25,-34.89,0,*59
1486494015.32,17954,11.63,72804.3,-7.91,-34.35,-34.89,0,*56
1486494016.58,17955,11.63,72804.0,-7.91,-34.19,-34.89,0,*59
1486494017.82,17956,11.63,72804.8,-7.91,-34.25,-34.77,0,*54
1486494019.08,17957,11.63,72804.3,-7.91,-34.19,-34.77,0,*5A
1486494020.34,17958,11.63,72804.3,-7.91,-34.19,-34.71,0,*53
1486494021.57,17959,11.63,72806.3,-7.91,-34.25,-34.71,0,*5D
1486494022.81,17960,11.56,72804.3,-7.91,-34.25,-34.77,0,*51
1486494024.02,17961,11.63,72804.5,-7.89,-34.25,-34.77,0,*59
1486494025.28,17962,11.56,72800.8,-7.91,-34.19,-34.77,0,*5C
1486494026.54,17963,11.56,72804.0,-7.91,-34.19,-34.59,0,*51
1486494027.8,17964,11.63,72806.5,-7.91,-34.19,-34.71,0,*5C
1486494029.01,17965,11.63,72806.5,-7.93,-34.25,-34.71,0,*50
1486494030.24,17966,11.63,72804.5,-7.91,-34.25,-34.71,0,*51
1486494031.5,17967,11.63,72806.0,-7.91,-34.19,-34.59,0,*55
1486494032.76,17968,11.56,72806.8,-7.89,-34.19,-34.53,0,*59
1486494033.97,17969,11.56,72806.0,-7.89,-34.07,-34.59,0,*5D
1486494035.18,17970,11.63,72804.5,-7.89,-34.25,-34.59,0,*55
1486494036.41,17971,11.63,72804.8,-7.89,-34.19,-34.59,0,*5B
1486494037.65,17972,11.63,72804.8,-7.89,-34.19,-34.77,0,*54
1486494038.88,17973,11.63,72806.3,-7.89,-34.19,-34.59,0,*59
1486494040.15,17974,11.56,72804.5,-7.89,-34.19,-34.53,0,*54
1486494041.41,17975,11.56,72804.0,-7.91,-34.19,-34.59,0,*56
1486494042.61,17976,11.56,72804.0,-7.89,-34.25,-34.71,0,*59
1486494043.85,17977,11.63,72806.3,-7.89,-34.19,-34.59,0,*5D
1486494045.11,17978,11.56,72806.5,-7.85,-34.13,-34.53,0,*5E
1486494046.38,17979,11.56,72802.0,-7.91,-34.07,-34.53,0,*5F
1486494047.64,17980,11.63,72804.3,-7.91,-34.19,-34.59,0,*5C
1486494048.93,17981,11.56,72804.0,-7.91,-34.19,-34.53,0,*57
1486494050.16,17982,11.56,72804.5,-7.91,-34.25,-34.77,0,*5D
1486494051.42,17983,11.56,72800.5,-7.91,-34.25,-34.53,0,*5A
1486494052.68,17984,11.63,72804.8,-7.89,-34.19,-34.53,0,*5B
1486494053.91,17985,11.56,72804.3,-7.89,-34.19,-34.41,0,*59
1486494055.17,17986,11.63,72810.0,-7.89,-34.19,-34.53,0,*59
1486494056.41,17987,11.56,72804.5,-7.89,-34.07,-34.53,0,*57
1486494057.65,17988,11.63,72808.5,-7.89,-34.07,-34.53,0,*58
1486494058.88,17989,11.56,72806.8,-7.89,-34.07,-34.35,0,*59
1486494060.11,17990,11.56,72806.3,-7.89,-34.01,-34.41,0,*54
1486494061.32,17991,11.56,72806.8,-7.89,-34.07,-34.41,0,*53
1486494062.52,17992,11.56,72806.8,-7.89,-34.07,-34.41,0,*50
1486494063.73,17993,11.63,72806.8,-7.89,-34.07,-34.41,0,*51
1486494064.96,17994,11.56,72806.8,-7.91,-34.07,-34.41,0,*5F
1486494066.2,17995,11.56,72806.0,-7.91,-34.07,-34.41,0,*5E
1486494067.43,17996,11.63,72804.8,-7.91,-34.07,-34.41,0,*5D
1486494068.69,17997,11.56,72804.8,-7.91,-34.01,-34.41,0,*5A
1486494069.92,17998,11.56,72802.8,-7.91,-34.07,-34.41,0,*53
1486494071.12,17999,11.56,72806.0,-7.89,-34.07,-34.41,0,*5B
1486494072.35,18000,11.56,72802.0,-7.89,-34.07,-34.35,0,*5E
1486494073.61,18001,11.56,72804.3,-7.91,-34.01,-34.41,0,*53
1486494074.84,18002,11.56,72806.0,-7.89,-34.07,-34.35,0,*5C
1486494076.05,18003,11.63,72806.5,-7.89,-34.07,-34.41,0,*5E
1486494077.26,18004,11.63,72806.0,-7.89,-34.07,-34.41,0,*59
1486494078.5,18005,11.56,72806.3,-7.89,-34.07,-34.53,0,*5B
1486494079.76,18006,11.56,72804.5,-7.91,-34.07,-34.53,0,*51
1486494081.02,18007,11.56,72806.0,-7.91,-34.01,-34.41,0,*55
1486494082.25,18008,11.56,72804.5,-7.91,-34.07,-34.41,0,*5C
1486494083.48,18009,11.56,72804.8,-7.89,-34.07,-34.35,0,*57
1486494084.74,18010,11.56,72806.5,-7.89,-34.01,-34.35,0,*59
1486494085.99,18011,11.63,72810.3,-7.89,-33.89,-34.35,0,*5F
1486494087.25,18012,11.56,72806.5,-7.85,-33.83,-34.31,0,*5E
1486494088.45,18013,11.56,72804.8,-7.89,-33.83,-34.25,0,*56
1486494089.71,18014,11.56,72808.5,-7.85,-33.83,-34.19,0,*52
1486494090.93,18015,11.56,72804.5,-7.89,-33.89,-34.25,0,*5A
1486494092.18,18016,11.56,72800.0,-7.89,-33.89,-34.19,0,*56
1486494093.41,18017,11.56,72806.8,-7.89,-34.01,-34.25,0,*5F
1486494094.66,18018,11.56,72806.5,-7.91,-34.01,-34.25,0,*59
1486494095.88,18019,11.63,72808.0,-7.89,-33.89,-34.25,0,*56
1486494097.11,18020,11.56,72804.0,-7.89,-34.01,-34.25,0,*5B
1486494098.34,18021,11.56,72804.3,-7.85,-33.95,-34.25,0,*5C
1486494099.59,18022,11.56,72804.8,-7.89,-33.89,-34.19,0,*51
1486494100.84,18023,11.56,72806.0,-7.89,-33.89,-34.19,0,*50
1486494102.07,18024,11.56,72804.8,-7.89,-33.89,-34.07,0,*58
1486494103.3,18025,11.56,72806.5,-7.91,-33.83,-34.07,0,*5A
1486494104.55,18026,11.56,72802.8,-7.91,-33.89,-34.25,0,*53
1486494105.78,18027,11.56,72804.8,-7.89,-34.01,-34.25,0,*5C
1486494107.01,18028,11.56,72804.8,-7.89,-34.01,-34.25,0,*53
1486494108.24,18029,11.56,72804.0,-7.89,-34.01,-34.25,0,*52
1486494109.49,18030,11.56,72802.5,-7.89,-33.89,-34.19,0,*52
1486494110.74,18031,11.56,72806.3,-7.85,-33.95,-34.19,0,*52
1486494111.99,18032,11.56,72806.3,-7.89,-33.89,-34.19,0,*50
1486494113.22,18033,11.56,72804.8,-7.89,-33.89,-34.07,0,*5E
1486494114.42,18034,11.56,72804.5,-7.89,-33.83,-34.07,0,*53
1486494115.66,18035,11.56,72804.8,-7.89,-33.83,-34.01,0,*54
1486494116.92,18036,11.56,72804.3,-7.89,-33.89,-34.01,0,*5D
1486494118.19,18037,11.56,72804.3,-7.85,-33.83,-34.01,0,*5A
1486494119.41,18038,11.56,72804.0,-7.89,-33.95,-34.19,0,*57
1486494120.64,18039,11.56,72806.0,-7.89,-33.89,-34.07,0,*54
1486494121.89,18040,11.56,72804.3,-7.89,-33.89,-34.19,0,*55
1486494123.14,18041,11.56,72806.3,-7.89,-33.89,-34.19,0,*54
1486494124.38,18042,11.56,72808.5,-7.85,-33.83,-34.13,0,*5B
1486494125.6,18043,11.56,72804.0,-7.89,-33.89,-34.07,0,*59
1486494126.87,18044,11.56,72806.3,-7.85,-33.83,-34.01,0,*5E
1486494128.11,18045,11.56,72804.8,-7.85,-33.83,-33.95,0,*55
1486494129.31,18046,11.56,72808.0,-7.89,-33.83,-34.07,0,*56
1486494130.57,18047,11.56,72806.5,-7.85,-33.77,-33.95,0,*5C
1486494131.8,18048,11.56,72804.3,-7.89,-33.89,-34.07,0,*52
1486494133.04,18049,11.56,72804.3,-7.89,-33.83,-34.01,0,*5F
1486494134.25,18050,11.63,72808.3,-7.89,-33.83,-34.07,0,*51
1486494135.48,18051,11.56,72804.0,-7.89,-33.83,-33.89,0,*51
1486494136.74,18052,11.56,72806.0,-7.85,-33.77,-33.83,0,*5F
1486494138.0,18053,11.56,72806.0,-7.85,-33.77,-33.83,0,*5E
1486494139.24,18054,11.56,72810.0,-7.89,-33.83,-34.01,0,*53
1486494140.47,18055,11.56,72804.8,-7.89,-33.83,-34.01,0,*52
1486494141.74,18056,11.56,72806.3,-7.85,-33.83,-34.01,0,*5D
1486494143.0,18057,11.56,72804.5,-7.85,-34.01,-34.13,0,*52
1486494144.26,18058,11.56,72806.5,-7.89,-34.01,-34.19,0,*5B
1486494145.52,18059,11.56,72808.5,-7.89,-33.89,-34.01,0,*54
1486494146.76,18060,11.56,72806.5,-7.89,-33.83,-34.01,0,*54
1486494147.99,18061,11.56,72804.8,-7.89,-33.83,-34.01,0,*55
1486494149.26,18062,11.56,72804.5,-7.89,-33.73,-34.01,0,*59
1486494150.54,18063,11.56,72808.8,-7.91,-33.89,-34.01,0,*54
1486494151.81,18064,11.56,72810.0,-7.85,-33.67,-33.77,0,*50
1486494153.07,18065,11.56,72808.5,-7.89,-33.73,-33.89,0,*59
1486494154.31,18066,11.56,72806.5,-7.89,-33.73,-33.83,0,*50
1486494155.55,18067,11.56,72808.5,-7.89,-33.73,-33.83,0,*51
1486494156.78,18068,11.56,72806.8,-7.89,-33.73,-33.83,0,*5E
1486494158.02,18069,11.56,72808.3,-7.89,-33.83,-33.89,0,*5A
1486494159.28,18070,11.56,72806.5,-7.89,-33.73,-33.89,0,*5D
1486494160.49,18071,11.56,72804.0,-7.89,-33.67,-33.83,0,*53
1486494161.75,18072,11.56,72808.5,-7.89,-33.73,-33.73,0,*5A
1486494162.99,18073,11.56,72806.0,-7.85,-33.67,-33.67,0,*57
1486494164.25,18074,11.56,72806.0,-7.85,-33.55,-33.61,0,*57
1486494165.48,18075,11.56,72810.5,-7.89,-33.67,-33.73,0,*58
1486494166.72,18076,11.56,72808.3,-7.85,-33.67,-33.67,0,*52
1486494167.96,18077,11.56,72808.3,-7.85,-33.55,-33.67,0,*52
1486494169.22,18078,11.56,72808.0,-7.85,-33.61,-33.67,0,*5A
1486494170.43,18079,11.56,72808.0,-7.89,-33.67,-33.67,0,*51
1486494171.67,18080,11.56,72810.0,-7.85,-33.55,-33.67,0,*5A
1486494172.93,18081,11.56,72810.0,-7.85,-33.83,-33.77,0,*51
1486494174.16,18082,11.56,72806.5,-7.89,-33.83,-33.89,0,*5F
1486494175.45,18083,11.56,72804.0,-7.85,-33.77,-33.77,0,*58
1486494176.73,18084,11.56,72808.3,-7.85,-33.61,-33.61,0,*5F
1486494178.01,18085,11.56,72808.8,-7.85,-33.61,-33.61,0,*5E
1486494179.24,18086,11.56,72808.5,-7.85,-33.55,-33.67,0,*5C
1486494180.48,18087,11.56,72804.5,-7.89,-33.67,-33.73,0,*55
1486494181.69,18088,11.56,72806.8,-7.89,-33.67,-33.67,0,*5F
1486494182.97,18089,11.56,72808.8,-7.85,-33.61,-33.61,0,*52
1486494184.25,18090,11.56,72808.0,-7.85,-33.61,-33.61,0,*5A
1486494185.54,18091,11.56,72806.8,-7.85,-33.43,-33.43,0,*5B
1486494186.77,18092,11.56,72808.3,-7.85,-33.55,-33.55,0,*58
1486494188.02,18093,11.56,72810.3,-7.89,-33.43,-33.61,0,*55
1486494189.28,18094,11.56,72810.8,-7.85,-33.61,-33.67,0,*58
1486494190.57,18095,11.56,72806.0,-7.85,-33.61,-33.43,0,*5F
1486494191.86,18096,11.56,72808.0,-7.85,-33.43,-33.43,0,*5C
1486494193.13,18097,11.56,72808.0,-7.85,-33.55,-33.43,0,*5A
1486494194.42,18098,11.56,72808.0,-7.85,-33.43,-33.43,0,*52
1486494195.71,18099,11.56,72808.5,-7.85,-33.43,-33.43,0,*53
1486494197.0,18100,11.56,72804.5,-7.85,-33.43,-33.43,0,*52
1486494198.27,18101,11.56,72808.3,-7.85,-33.37,-33.43,0,*50
1486494199.56,18102,11.56,72806.0,-7.85,-33.43,-33.43,0,*50
1486494200.83,18103,11.56,72806.3,-7.85,-33.37,-33.43,0,*52
1486494202.09,18104,11.56,72808.5,-7.85,-33.43,-33.55,0,*51
1486494203.38,18105,11.56,72808.5,-7.85,-33.43,-33.43,0,*57
1486494204.64,18106,11.56,72804.3,-7.85,-33.55,-33.43,0,*53
1486494205.91,18107,11.56,72806.5,-7.89,-33.43,-33.43,0,*59
1486494207.17,18108,11.56,72806.0,-7.85,-33.27,-33.37,0,*5B
1486494208.43,18109,11.56,72804.8,-7.85,-33.43,-33.37,0,*58
1486494209.68,18110,11.56,72808.3,-7.85,-33.37,-33.37,0,*53
1486494210.95,18111,11.56,72804.8,-7.85,-33.37,-33.43,0,*51
1486494212.19,18112,11.56,72804.5,-7.85,-33.37,-33.37,0,*51
1486494213.45,18113,11.56,72804.0,-7.85,-33.43,-33.37,0,*53
1486494214.72,18114,11.56,72808.5,-7.85,-33.27,-33.37,0,*56
1486494215.98,18115,11.56,72810.0,-7.85,-33.27,-33.37,0,*57
1486494217.27,18116,11.56,72806.0,-7.85,-33.27,-33.27,0,*55
1486494218.56,18117,11.56,72806.8,-7.85,-33.27,-33.27,0,*54
1486494219.83,18118,11.56,72804.3,-7.83,-33.27,-33.27,0,*5D
1486494221.05,18119,11.56,72808.3,-7.83,-33.37,-33.37,0,*5C
1486494222.3,18120,11.56,72808.8,-7.83,-33.21,-33.27,0,*50
1486494223.57,18121,11.56,72810.3,-7.83,-33.27,-33.27,0,*57
1486494224.82,18122,11.56,72808.3,-7.83,-33.21,-33.27,0,*52
1486494226.09,18123,11.56,72804.3,-7.83,-33.27,-33.27,0,*55
1486494227.35,18124,11.56,72806.8,-7.83,-33.27,-33.27,0,*52
1486494228.63,18125,11.56,72806.3,-7.83,-33.27,-33.27,0,*53
1486494229.87,18126,11.56,72808.5,-7.83,-33.09,-33.37,0,*5D
1486494231.14,18127,11.5,72800.8,-7.83,-33.09,-33.27,0,*5D
1486494232.41,18128,11.56,72810.3,-7.85,-33.21,-33.27,0,*5E
1486494233.63,18129,11.56,72810.0,-7.83,-33.21,-33.21,0,*5F
1486494234.87,18130,11.56,72810.3,-7.83,-33.21,-33.27,0,*51
1486494236.14,18131,11.56,72804.5,-7.81,-33.15,-33.27,0,*55
1486494237.38,18132,11.56,72808.8,-7.83,-33.21,-33.27,0,*53
1486494238.63,18133,11.56,72804.0,-7.83,-33.21,-33.27,0,*52
1486494239.92,18134,11.56,72806.0,-7.81,-33.31,-33.31,0,*51
1486494241.16,18135,11.56,72804.3,-7.81,-33.21,-33.21,0,*50
1486494242.4,18136,11.56,72806.8,-7.83,-33.21,-33.27,0,*57
1486494243.64,18137,11.56,72808.5,-7.81,-33.15,-33.21,0,*55
1486494244.91,18138,11.56,72806.8,-7.83,-33.09,-33.27,0,*53
1486494246.17,18139,11.56,72810.8,-7.81,-32.97,-33.15,0,*57
1486494247.4,18140,11.56,72810.3,-7.81,-33.03,-33.03,0,*52
1486494248.62,18141,11.56,72806.3,-7.83,-33.21,-33.21,0,*51
1486494249.86,18142,11.56,72808.5,-7.81,-33.03,-33.03,0,*50
1486494251.1,18143,11.56,72806.8,-7.83,-33.09,-33.21,0,*59
1486494252.34,18144,11.56,72808.5,-7.83,-33.09,-33.21,0,*5E
1486494253.56,18145,11.56,72806.8,-7.83,-33.21,-33.21,0,*55
1486494254.83,18146,11.56,72810.3,-7.83,-33.09,-33.09,0,*56
1486494256.06,18147,11.56,72808.3,-7.81,-33.15,-33.15,0,*55
1486494257.29,18148,11.56,72806.0,-7.81,-33.15,-33.15,0,*5A
1486494258.53,18149,11.56,72806.8,-7.81,-33.15,-33.15,0,*5B
1486494259.77,18150,11.56,72808.8,-7.83,-33.09,-33.21,0,*5B
1486494261.01,18151,11.56,72810.3,-7.83,-33.09,-33.21,0,*5A
1486494262.23,18152,11.56,72812.0,-7.83,-33.03,-33.21,0,*53
1486494263.44,18153,11.56,72806.8,-7.83,-33.03,-33.03,0,*52
1486494264.68,18154,11.56,72808.8,-7.83,-32.91,-33.09,0,*55
1486494265.95,18155,11.56,72808.8,-7.81,-32.85,-33.03,0,*59
1486494267.21,18156,11.5,72806.8,-7.81,-32.97,-33.15,0,*5E
1486494268.46,18157,11.56,72810.0,-7.81,-32.97,-33.03,0,*58
1486494269.72,18158,11.56,72812.0,-7.81,-32.97,-33.15,0,*50
1486494270.98,18159,11.56,72806.0,-7.81,-32.97,-33.03,0,*56
1486494272.27,18160,11.56,72808.0,-7.81,-32.97,-32.97,0,*50
1486494273.52,18161,11.56,72810.5,-7.79,-32.85,-32.97,0,*55
1486494274.82,18162,11.56,72808.3,-7.81,-32.79,-32.85,0,*51
1486494276.09,18163,11.56,72810.3,-7.81,-32.69,-32.85,0,*51
1486494277.38,18164,11.56,72810.3,-7.81,-32.79,-32.97,0,*54
1486494278.66,18165,11.56,72808.8,-7.81,-32.85,-32.97,0,*56
1486494279.95,18166,11.56,72808.8,-7.81,-32.85,-32.97,0,*55
1486494281.24,18167,11.56,72814.3,-7.81,-32.79,-32.97,0,*57
1486494282.53,18168,11.56,72808.8,-7.81,-32.79,-32.85,0,*5B
1486494283.82,18169,11.56,72806.8,-7.81,-32.85,-32.97,0,*5A
1486494285.11,18170,11.56,72806.8,-7.81,-32.79,-32.85,0,*52
1486494286.4,18171,11.56,72810.3,-7.81,-32.79,-32.85,0,*53
1486494287.66,18172,11.56,72810.3,-7.79,-32.85,-32.97,0,*57
1486494288.89,18173,11.56,72810.8,-7.79,-32.97,-33.15,0,*5E
1486494290.12,18174,11.56,72810.3,-7.77,-32.91,-32.91,0,*5C
1486494291.36,18175,11.56,72804.8,-7.79,-32.85,-33.03,0,*5C
1486494292.62,18176,11.56,72810.5,-7.79,-32.85,-32.97,0,*53
1486494293.91,18177,11.56,72806.3,-7.81,-32.79,-32.97,0,*56
1486494295.15,18178,11.56,72806.0,-7.79,-32.69,-32.85,0,*5C
1486494296.4,18179,11.56,72806.8,-7.79,-32.69,-32.79,0,*5E
1486494297.64,18180,11.56,72810.5,-7.79,-32.69,-32.79,0,*58
1486494298.91,18181,11.56,72808.0,-7.79,-32.79,-32.79,0,*58
1486494300.18,18182,11.56,72814.3,-7.77,-32.63,-32.97,0,*5E
1486494301.47,18183,11.5,72804.0,-7.77,-32.79,-32.97,0,*54
1486494302.71,18184,11.56,72810.0,-7.79,-32.69,-32.85,0,*5F
1486494303.97,18185,11.56,72810.0,-7.77,-32.63,-32.91,0,*5F
1486494305.26,18186,11.56,72810.5,-7.77,-32.63,-32.75,0,*56
1486494306.51,18187,11.56,72810.8,-7.79,-32.69,-32.79,0,*5F
1486494307.77,18188,11.56,72808.3,-7.77,-32.57,-32.75,0,*5F
1486494309.03,18189,11.56,72808.3,-7.77,-32.57,-32.63,0,*59
1486494310.3,18190,11.56,72808.3,-7.77,-32.57,-32.75,0,*56
1486494311.58,18191,11.56,72810.5,-7.77,-32.63,-32.75,0,*50
1486494312.87,18192,11.56,72810.8,-7.77,-32.63,-32.75,0,*53
1486494314.15,18193,11.56,72808.8,-7.77,-32.63,-32.63,0,*55
1486494315.44,18194,11.56,72810.8,-7.77,-32.45,-32.75,0,*51
1486494316.71,18195,11.56,72812.3,-7.77,-32.57,-32.75,0,*53
1486494317.99,18196,11.56,72810.0,-7.77,-32.63,-32.97,0,*5B
1486494319.22,18197,11.5,72808.5,-7.79,-32.69,-32.97,0,*5E
1486494320.51,18198,11.56,72808.5,-7.77,-32.63,-32.79,0,*55
1486494321.77,18199,11.56,72808.0,-7.79,-32.63,-32.79,0,*5A
1486494323.03,18200,11.56,72810.0,-7.77,-32.57,-32.63,0,*5B
1486494324.3,18201,11.56,72814.3,-7.77,-32.57,-32.75,0,*5D
1486494325.56,18202,11.56,72810.5,-7.77,-32.57,-32.75,0,*5E
1486494326.83,18203,11.56,72810.5,-7.77,-32.57,-32.79,0,*53
1486494328.09,18204,11.56,72810.5,-7.77,-32.57,-32.79,0,*54
1486494329.35,18205,11.56,72810.8,-7.77,-32.75,-32.91,0,*53
1486494330.64,18206,11.56,72808.0,-7.77,-32.63,-32.79,0,*51
1486494331.93,18207,11.56,72810.8,-7.77,-32.75,-32.79,0,*57
1486494333.19,18208,11.56,72810.0,-7.77,-32.63,-32.91,0,*59
1486494334.45,18209,11.56,72808.8,-7.77,-32.57,-32.79,0,*59
1486494335.71,18210,11.56,72810.5,-7.77,-32.57,-32.79,0,*51
1486494336.97,18211,11.56,72812.5,-7.77,-32.57,-32.63,0,*5B
1486494338.24,18212,11.56,72808.0,-7.77,-32.57,-32.79,0,*53
1486494339.48,18213,11.56,72808.5,-7.75,-32.57,-32.75,0,*5C
1486494340.74,18214,11.56,72810.3,-7.77,-32.57,-32.79,0,*55
1486494341.98,18215,11.56,72810.5,-7.75,-32.57,-32.79,0,*56
1486494343.22,18216,11.56,72812.0,-7.75,-32.57,-32.75,0,*59
1486494344.46,18217,11.56,72808.3,-7.75,-32.57,-32.63,0,*5F
1486494345.7,18218,11.56,72808.0,-7.75,-32.57,-32.63,0,*50
1486494346.93,18219,11.56,72812.0,-7.75,-32.57,-32.63,0,*51
1486494348.17,18220,11.56,72814.0,-7.75,-32.57,-32.75,0,*5C
1486494349.42,18221,11.56,72810.8,-7.75,-32.57,-32.75,0,*5D
1486494350.63,18222,11.56,72808.5,-7.75,-32.39,-32.69,0,*5B
1486494351.9,18223,11.56,72808.5,-7.77,-32.57,-32.75,0,*5D
1486494353.16,18224,11.56,72808.5,-7.77,-32.57,-32.75,0,*5A
1486494354.41,18225,11.56,72814.5,-7.75,-32.57,-32.75,0,*59
1486494355.64,18226,11.56,72810.5,-7.73,-32.51,-32.69,0,*57
1486494356.91,18227,11.5,72808.8,-7.73,-32.51,-32.75,0,*5B
1486494358.14,18228,11.56,72808.5,-7.73,-32.51,-32.57,0,*54
1486494359.4,18229,11.56,72812.0,-7.75,-32.45,-32.63,0,*51
1486494360.63,18230,11.56,72814.3,-7.73,-32.39,-32.69,0,*5E
1486494361.87,18231,11.56,72808.5,-7.75,-32.57,-32.63,0,*5B
1486494363.11,18232,11.56,72810.3,-7.75,-32.57,-32.63,0,*58
1486494364.37,18233,11.5,72810.3,-7.75,-32.45,-32.75,0,*5D
1486494365.64,18234,11.56,72808.3,-7.75,-32.45,-32.75,0,*5A
1486494366.84,18235,11.56,72812.3,-7.75,-32.57,-32.57,0,*58
1486494368.08,18236,11.56,72810.5,-7.75,-32.57,-32.75,0,*5B
1486494369.35,18237,11.5,72806.3,-7.75,-32.45,-32.75,0,*59
1486494370.59,18238,11.56,72810.3,-7.73,-32.39,-32.69,0,*56
1486494371.85,18239,11.56,72812.0,-7.75,-32.45,-32.63,0,*50
1486494373.08,18240,11.5,72810.8,-7.75,-32.57,-32.63,0,*5D
1486494374.31,18241,11.5,72810.3,-7.73,-32.51,-32.57,0,*5B
1486494375.57,18242,11.56,72812.8,-7.75,-32.45,-32.63,0,*5C
1486494376.8,18243,11.56,72814.5,-7.73,-32.35,-32.51,0,*5D
1486494378.07,18244,11.56,72810.0,-7.73,-32.51,-32.75,0,*5E
1486494379.33,18245,11.56,72812.3,-7.75,-32.45,-32.63,0,*5B
1486494380.55,18246,11.5,72808.8,-7.73,-32.39,-32.57,0,*52
1486494381.79,18247,11.56,72812.5,-7.73,-32.39,-32.69,0,*5E
1486494383.03,18248,11.56,72812.0,-7.73,-32.39,-32.51,0,*5A
1486494384.27,18249,11.5,72810.8,-7.73,-32.51,-32.69,0,*5E
1486494385.51,18250,11.5,72808.8,-7.73,-32.51,-32.69,0,*56
1486494386.74,18251,11.5,72810.8,-7.75,-32.45,-32.57,0,*59
1486494387.94,18252,11.5,72810.8,-7.75,-32.39,-32.57,0,*51
1486494389.16,18253,11.5,72808.8,-7.73,-32.35,-32.57,0,*5A
1486494390.4,18254,11.5,72812.5,-7.75,-32.57,-32.63,0,*58
1486494391.63,18255,11.5,72808.8,-7.73,-32.39,-32.57,0,*50
1486494392.86,18256,11.56,72810.0,-7.75,-32.39,-32.63,0,*52
1486494394.09,18257,11.5,72808.3,-7.73,-32.39,-32.57,0,*52
1486494395.33,18258,11.56,72810.8,-7.73,-32.51,-32.69,0,*5E
1486494396.59,18259,11.56,72810.8,-7.75,-32.45,-32.63,0,*56
1486494397.81,18260,11.5,72810.0,-7.73,-32.35,-32.57,0,*5A
1486494399.02,18261,11.5,72810.8,-7.75,-32.39,-32.57,0,*51
1486494400.25,18262,11.5,72810.5,-7.73,-32.51,-32.51,0,*5C
1486494401.49,18263,11.5,72808.8,-7.73,-32.39,-32.51,0,*53
1486494402.73,18264,11.56,72812.3,-7.73,-32.39,-32.51,0,*54
1486494403.94,18265,11.5,72810.5,-7.75,-32.39,-32.57,0,*55
1486494405.17,18266,11.5,72808.3,-7.73,-32.35,-32.39,0,*54
1486494406.4,18267,11.56,72812.5,-7.73,-32.35,-32.51,0,*5B
1486494407.63,18268,11.56,72812.3,-7.73,-32.35,-32.39,0,*5A
1486494408.89,18269,11.5,72808.3,-7.73,-32.29,-32.39,0,*56
1486494410.14,18270,11.56,72812.0,-7.73,-32.29,-32.39,0,*5E
1486494411.38,18271,11.5,72810.8,-7.73,-32.35,-32.51,0,*5C
1486494412.64,18272,11.56,72810.8,-7.73,-32.29,-32.51,0,*52
1486494413.89,18273,11.5,72810.0,-7.73,-32.29,-32.39,0,*5D
1486494415.13,18274,11.5,72812.0,-7.73,-32.35,-32.39,0,*57
1486494416.36,18275,11.5,72808.5,-7.73,-32.39,-32.51,0,*54
1486494417.6,18276,11.56,72812.8,-7.73,-32.35,-32.51,0,*5B
1486494418.84,18277,11.56,72810.8,-7.73,-32.39,-32.51,0,*56
1486494420.04,18278,11.5,72808.8,-7.71,-32.39,-32.57,0,*5D
1486494421.27,18279,11.5,72810.3,-7.73,-32.35,-32.51,0,*54
1486494422.53,18280,11.56,72812.5,-7.73,-32.29,-32.39,0,*51
1486494423.76,18281,11.56,72812.3,-7.73,-32.35,-32.51,0,*53
1486494424.97,18282,11.5,72808.5,-7.71,-32.35,-32.39,0,*5C
1486494426.2,18283,11.56,72812.0,-7.71,-32.29,-32.39,0,*50
1486494427.45,18284,11.56,72810.5,-7.69,-32.29,-32.35,0,*52
1486494428.68,18285,11.5,72814.0,-7.69,-32.23,-32.35,0,*59
1486494429.93,18286,11.5,72810.0,-7.69,-32.23,-32.29,0,*57
1486494431.18,18287,11.5,72810.3,-7.69,-32.29,-32.35,0,*51
1486494432.41,18288,11.5,72808.0,-7.71,-32.29,-32.51,0,*55
1486494433.64,18289,11.56,72812.0,-7.71,-32.29,-32.35,0,*56
1486494434.84,18290,11.5,72808.8,-7.71,-32.35,-32.35,0,*53
1486494436.09,18291,11.5,72808.8,-7.69,-32.29,-32.35,0,*56
1486494437.32,18292,11.5,72810.3,-7.71,-32.29,-32.51,0,*5E
1486494438.55,18293,11.56,72812.8,-7.69,-32.23,-32.35,0,*5E
1486494439.78,18294,11.56,72814.3,-7.71,-32.29,-32.39,0,*56
1486494440.99,18295,11.5,72810.0,-7.71,-32.35,-32.39,0,*5A
1486494442.24,18296,11.5,72810.0,-7.69,-32.29,-32.35,0,*51
1486494443.46,18297,11.5,72810.0,-7.71,-32.29,-32.35,0,*59
1486494444.7,18298,11.5,72810.0,-7.69,-32.23,-32.51,0,*57
1486494445.9,18299,11.5,72808.0,-7.71,-32.35,-32.51,0,*58
1486494447.11,18300,11.56,72810.5,-7.71,-32.35,-32.39,0,*57
1486494448.39,18301,11.56,72812.3,-7.69,-32.29,-32.45,0,*59
1486494449.61,18302,11.5,72814.0,-7.69,-32.35,-32.57,0,*54
1486494450.86,18303,11.5,72810.5,-7.69,-32.35,-32.45,0,*56
1486494452.07,18304,11.56,72814.0,-7.71,-32.39,-32.51,0,*51
1486494453.33,18305,11.5,72808.5,-7.69,-32.35,-32.45,0,*50
1486494454.53,18306,11.56,72814.0,-7.71,-32.35,-32.35,0,*5D
1486494455.78,18307,11.56,72810.0,-7.69,-32.29,-32.35,0,*58
1486494456.99,18308,11.5,72808.0,-7.71,-32.39,-32.39,0,*53
1486494458.2,18309,11.5,72810.3,-7.71,-32.39,-32.39,0,*52
1486494459.48,18310,11.5,72812.0,-7.69,-32.45,-32.45,0,*53
1486494460.71,18311,11.56,72812.8,-7.69,-32.35,-32.35,0,*52
1486494461.92,18312,11.56,72812.5,-7.71,-32.39,-32.51,0,*56
1486494463.17,18313,11.56,72812.8,-7.69,-32.45,-32.35,0,*57
1486494464.41,18314,11.5,72810.5,-7.71,-32.45,-32.51,0,*5B
1486494465.62,18315,11.5,72810.8,-7.71,-32.51,-32.51,0,*5F
1486494466.83,18316,11.5,72810.3,-7.71,-32.51,-32.39,0,*52
1486494468.05,18317,11.5,72812.0,-7.71,-32.39,-32.51,0,*53
1486494469.26,18318,11.5,72806.5,-7.71,-32.51,-32.51,0,*52
1486494470.46,18319,11.56,72814.3,-7.71,-32.35,-32.35,0,*53
1486494471.67,18320,11.56,72814.8,-7.71,-32.39,-32.39,0,*59
1486494472.88,18321,11.5,72810.5,-7.71,-32.51,-32.39,0,*56
1486494474.09,18322,11.5,72810.3,-7.71,-32.51,-32.39,0,*55
1486494475.29,18323,11.5,72808.3,-7.71,-32.35,-32.35,0,*5A
1486494476.49,18324,11.5,72808.0,-7.71,-32.39,-32.35,0,*51
1486494477.71,18325,11.5,72810.8,-7.71,-32.51,-32.51,0,*5C
1486494478.92,18326,11.5,72812.5,-7.71,-32.51,-32.39,0,*51
1486494480.13,18327,11.56,72812.5,-7.71,-32.39,-32.39,0,*5E
1486494481.34,18328,11.5,72810.3,-7.71,-32.51,-32.39,0,*5F
1486494482.55,18329,11.5,72808.8,-7.71,-32.39,-32.51,0,*5E
1486494483.83,18330,11.5,72808.3,-7.69,-32.45,-32.45,0,*51
1486494485.04,18331,11.56,72814.8,-7.71,-32.39,-32.39,0,*59
1486494486.25,18332,11.5,72814.0,-7.71,-32.39,-32.39,0,*5A
1486494487.46,18333,11.5,72814.0,-7.71,-32.39,-32.35,0,*57
1486494488.66,18334,11.5,72814.0,-7.71,-32.39,-32.35,0,*50
1486494489.87,18335,11.5,72814.3,-7.71,-32.51,-32.39,0,*53
1486494491.08,18336,11.5,72812.3,-7.71,-32.51,-32.39,0,*50
1486494492.34,18337,11.5,72810.8,-7.69,-32.45,-32.35,0,*51
1486494493.55,18338,11.5,72814.3,-7.71,-32.39,-32.39,0,*50
1486494494.76,18339,11.5,72810.0,-7.71,-32.51,-32.35,0,*53
1486494495.97,18340,11.5,72812.3,-7.71,-32.51,-32.39,0,*51
1486494497.19,18341,11.5,72812.0,-7.69,-32.35,-32.35,0,*57
1486494498.45,18342,11.5,72812.0,-7.69,-32.45,-32.39,0,*5F